Simultaneous Nadir Overpasses (SNOs) Predictions

Prediction of SNOs between GOES-17 and METOP-C Satellite Orbit:

Table of predicted SNOs for the next 14.0 days since TLE Epoch: 5/28/2022
Index Date Time (GOES-17) GOES-17 Lat,Lon METOP-C Lat,Lon Distance(km) Time Diff (sec)
1 05/28/2022 18:25:48 0.05,-137.19 -0.81,-133.46 426.00 80
2 05/30/2022 06:42:07 -0.04,-137.18 -0.25,-138.05 98.72 80
3 05/31/2022 06:24:06 -0.04,-137.17 0.87,-133.05 469.92 80
4 06/01/2022 18:40:16 0.04,-137.16 0.12,-137.61 50.62 80
5 06/04/2022 06:38:35 -0.03,-137.13 -0.05,-137.20 8.20 80
6 06/06/2022 18:39:22 0.02,-137.09 -0.03,-136.75 38.48 80
7 06/08/2022 06:55:42 -0.02,-137.07 -1.00,-141.34 487.87 80
8 06/09/2022 06:37:41 -0.02,-137.05 0.12,-136.35 79.71 80
9 06/10/2022 18:53:51 0.02,-137.02 0.86,-140.91 442.62 80
